Location: ?�?ov
(48.6782°N, 17.3377°E)
Time: 02:19:14
(UTC+00:00)

Daily predictions for brighter satellites

Satellite Brightness Start Highest point End
(mag) Time Altitude Azimuth Time Altitude Azimuth Time Altitude Azimuth
USA 234 4.0 00:00:24 10° E 00:06:36 48° NNE 00:07:47 43° NNW
CZ-4C R/B 4.3 00:06:34 21° NNW 00:08:02 23° N 00:13:20 10° NE
Cosmos 2369 Rocket 4.2 00:10:56 21° NNW 00:10:56 21° NNW 00:14:00 10° N
ADEOS II 3.4 00:40:38 10° NNE 00:44:28 36° ENE 00:44:28 36° ENE
ARIANE 5 R/B 4.4 00:46:49 10° NE 00:50:49 23° E 00:51:03 23° E
BREEZE-M DEB (TANK) 4.5 00:54:40 77° WNW 00:55:15 85° N 01:18:16 10° E
Cosmos 2181 Rocket 4.4 00:58:47 54° NNW 00:58:47 54° NNW 01:03:34 10° N
Cosmos 2227 Rocket 4.2 00:52:45 10° NNW 00:54:07 18° NNW 00:54:07 18° NNW
SL-16 R/B 3.9 01:15:09 26° NW 01:15:09 26° NW 01:18:01 10° NNW
USA 267 3.6 01:06:40 10° ENE 01:13:01 51° SE 01:13:06 51° SE
CZ-2D R/B 3.1 01:15:16 10° N 01:18:48 37° NNW 01:18:48 37° NNW
SJ 16-02 3.8 01:17:18 10° N 01:20:43 21° NE 01:24:07 10° ESE
ATLAS 2AS CENTAUR R/B 4.4 01:15:19 10° NW 01:22:09 32° NNE 01:28:33 10° E
NOSS 2-2 (D) 4.4 01:22:27 57° NNW 01:23:48 82° NE 01:31:26 10° SE
Resurs 1-4 Rocket 3.2 01:22:28 10° N 01:25:56 34° NNW 01:25:56 34° NNW
Lacrosse 5 2.4 01:29:27 54° E 01:29:27 54° E 01:33:33 10° ENE
Cosmos 2369 3.8 01:29:32 67° ESE 01:29:35 67° ESE 01:35:18 10° NNE
ATLAS 5 CENTAUR R/B 3.3 01:30:41 27° NNW 01:30:41 27° NNW 01:34:11 10° NNE
NPP 4.4 01:26:15 10° N 01:30:13 41° NNW 01:30:13 41° NNW
H-2A R/B 4.3 01:29:48 10° ESE 01:33:22 25° ENE 01:37:01 10° N
SL-08 R/B 4.1 01:37:45 45° N 01:37:45 45° N 01:40:59 10° NNW
Cosmos 1818 4.4 01:44:08 38° NW 01:44:08 38° NW 01:49:10 10° NNE
USA 234 3.2 01:42:45 10° ESE 01:49:18 86° NNE 01:55:07 14° NW
IRS-P3 3.9 01:45:27 10° NNE 01:50:50 85° WNW 01:51:04 81° SW
Timation 1 Rocket 4.2 01:46:15 10° NNW 01:52:18 84° WSW 01:58:18 10° SSE
Cosmos 2360 4.1 01:55:36 68° SSW 01:56:24 89° ESE 02:02:10 10° NNE
CZ-4B R/B 3.9 01:54:19 10° N 01:58:43 47° NW 01:58:43 47° NW
Cosmos 1821 Rocket 3.9 01:53:18 10° NNW 01:59:30 61° W 02:00:05 59° WSW
Cosmos 1697 Rocket 2.6 02:01:35 63° W 02:02:04 67° WNW 02:07:41 10° NNE
Cosmos 972 Rocket 3.7 02:05:43 70° WNW 02:05:46 70° WNW 02:10:43 10° NNE
Iridium 2 4.1 02:07:16 62° ENE 02:07:16 62° ENE 02:10:42 10° N
Cosmos 1980 Rocket 2.2 02:05:36 51° S 02:07:04 79° ESE 02:12:45 10° NNE
SL-8 R/B 3.9 02:07:53 56° SSE 02:07:53 56° SSE 02:11:57 10° ESE
X-37B 3.0 02:09:45 18° ESE 02:09:45 18° ESE 02:10:47 10° ESE
SL-24 R/B 4.3 02:08:57 69° WSW 02:09:10 70° W 02:14:33 10° NNW
Cosmos 1934 Rocket 3.8 02:04:51 10° N 02:10:56 82° W 02:15:17 20° S
Cosmos 2263 Rocket 2.4 02:06:42 10° NNW 02:12:22 72° ENE 02:18:02 10° SE
Meteor 1-26 Rocket 4.0 02:11:26 57° SW 02:12:30 76° WNW 02:17:56 10° N
Cosmos 1515 Rocket 3.4 02:12:56 77° W 02:12:57 77° W 02:17:26 10° N
Cosmos 2322 Rocket 4.2 02:09:45 10° SSE 02:14:13 24° ESE 02:18:43 10° NE
Meteor 1-25 Rocket 4.5 02:09:30 10° NNW 02:14:52 47° W 02:14:52 47° W
Cosmos 921 Rocket 3.7 02:16:00 33° SSE 02:17:23 48° ESE 02:21:25 10° NNE
SL-16 R/B 3.6 02:18:05 10° S 02:23:07 34° ESE 02:28:11 10° NE
Cosmos 1328 Rocket 4.4 02:24:01 35° NW 02:24:01 35° NW 02:27:29 10° N
Celestis-02/Orion 38 4.5 02:19:01 10° SSE 02:24:14 64° WSW 02:29:22 10° NW
Gbstr 26 Del rocket 4.4 02:18:38 21° WNW 02:24:33 83° SSW 02:31:58 10° ESE
ADEOS II 2.9 02:20:31 10° N 02:25:12 33° WNW 02:25:24 33° WNW
Cosmos 1151 Rocket 4.2 02:26:32 29° NW 02:26:32 29° NW 02:29:33 10° N
CZ-3B R/B 2.4 02:25:23 46° NW 02:26:07 54° NNW 02:34:36 10° ENE
Cosmos 1500 3.2 02:22:54 10° N 02:26:46 79° ENE 02:28:33 30° SSE
USA 305 2.9 02:27:21 60° WNW 02:27:55 69° NNW 02:32:10 10° ENE
Cosmos 1812 3.4 02:26:12 26° SSE 02:28:04 52° E 02:31:51 10° NNE
Nadezhda 3 Rocket 4.3 02:26:57 40° WSW 02:28:16 45° WNW 02:34:11 10° N
Cosmos 192 4.2 02:26:47 44° SSW 02:28:22 90° W 02:33:20 10° NNE
Cosmos 1933 Rocket 4.0 02:25:24 10° NNW 02:28:51 43° WNW 02:28:51 43° WNW
ARIANE 5 R/B 2.6 02:25:17 10° N 02:30:16 54° WNW 02:31:22 45° WSW
Cosmos 2227 4.1 02:24:51 10° NNW 02:30:32 82° WSW 02:36:09 10° SSE
USA 306 3.0 02:31:23 54° WNW 02:32:07 66° NNW 02:36:22 10° ENE
Cosmos 1666 4.0 02:28:41 10° N 02:32:20 41° ENE 02:35:57 10° SSE
CZ-4C R/B 2.9 02:32:38 41° SSE 02:33:49 88° WSW 02:37:25 10° NNW
IDEFIX/ARIANE 42P 2.6 02:29:31 10° N 02:34:46 65° WNW 02:36:51 36° SW
Cosmos 1605 Rocket 3.9 02:31:12 10° N 02:37:37 80° W 02:44:00 10° S
COSMOS 2441 4.3 02:33:25 10° NNE 02:38:23 89° ESE 02:41:32 23° SSW
Meteor 1-14 Rocket 4.3 02:33:46 10° NNW 02:39:11 51° W 02:42:39 21° SSW
ASTEX 1 3.6 02:34:57 10° N 02:39:48 52° WNW 02:41:21 37° SW
CZ-2C R/B 3.3 02:35:12 10° NNE 02:40:13 52° E 02:45:17 10° S
IRIDIUM 106 4.4 02:35:46 10° N 02:41:01 79° E 02:46:14 10° S
Cosmos 2228 Rocket 2.9 02:39:36 35° SSW 02:41:23 76° W 02:45:49 10° N
Meteor 1-5 Rocket 4.0 02:38:54 10° NNW 02:44:14 80° W 02:49:38 10° S
Cosmos 1763 Rocket 4.3 02:41:42 10° S 02:46:50 51° ESE 02:51:58 10° NNE
CZ-2D R/B 3.9 02:43:27 10° N 02:47:29 44° WNW 02:48:18 39° WSW
Meteor 2-6 Rocket 4.2 02:43:33 15° SSW 02:48:24 85° W 02:54:18 10° N
SL-4 R/B 4.0 02:45:52 16° S 02:48:34 27° SE 02:52:34 10° E
Cosmos 1869 Rocket 3.4 02:44:43 10° NNW 02:49:05 74° W 02:53:23 10° S
NOSS 3-4 (A) 4.2 02:43:28 10° NW 02:50:19 67° NE 02:57:56 10° SE
NOSS 3-4 (C) 4.2 02:43:35 10° NW 02:50:25 66° NE 02:58:01 10° SE
USA 267 3.4 02:49:42 10° NE 02:56:12 68° NNW 03:00:27 23° WSW
Cosmos 1238 Rocket 4.4 02:52:38 10° NNW 02:58:46 42° W 03:04:09 11° SSW
CZ-2C R/B 2.9 02:55:14 10° N 02:58:54 49° WNW 03:00:12 33° SW
Cosmos 1782 3.9 02:59:09 26° WNW 02:59:10 26° WNW 03:02:37 10° NNW
SJ 16-02 1.4 02:55:19 10° NNW 02:59:35 51° WSW 03:03:50 10° S
USA 307 3.3 02:57:59 29° W 02:59:52 52° NNW 03:04:03 10° ENE
NOSS 3-3 (A) 3.9 02:56:40 23° SW 03:00:34 87° NW 03:07:16 10° NE
NOSS 3-3 (C) 3.9 02:56:50 23° SW 03:00:41 88° NW 03:07:20 10° NE
Cosmos 44 3.3 02:59:37 31° WSW 03:01:33 55° NW 03:06:11 10° NNE
Meteor 1-4 Rocket 2.3 02:59:37 20° SSW 03:01:52 88° W 03:05:25 10° N
PSLV R/B 3.5 02:58:03 10° NNE 03:02:17 85° ESE 03:06:28 10° SSW
Cosmos 389 Rocket 3.7 03:02:26 26° WNW 03:02:26 26° WNW 03:05:21 10° N
USA 308 3.4 03:01:02 27° W 03:03:04 51° NNW 03:07:15 10° ENE
PAYLOAD A 3.7 02:59:51 10° NNE 03:04:35 88° WNW 03:09:17 10° SSW
Cosmos 2278 4.3 03:02:25 25° WSW 03:05:13 41° NW 03:10:37 10° NNE
USA 276 2.3 03:04:24 33° WNW 03:05:39 67° N 03:08:51 10° E
Cosmos 990 Rocket 3.9 03:02:44 10° NNW 03:07:53 65° WSW 03:13:01 10° S
H-2A R/B 2.4 03:04:58 10° S 03:09:07 42° W 03:13:23 10° NNW
ATLAS CENTAUR R/B 3.8 02:59:57 10° WNW 03:11:02 52° NNE 03:15:21 10° E
Lacrosse 5 2.6 03:08:39 21° W 03:11:43 43° NNW 03:16:35 10° NE
ERBS 2.2 03:11:03 29° SW 03:12:38 82° SE 03:16:01 10° NE
Cosmos 2100 Rocket 4.2 03:07:36 10° N 03:14:02 83° E 03:20:25 10° S
ATLAS 2AS CENTAUR R/B 3.1 03:06:45 10° NW 03:14:23 75° NE 03:21:22 10° SE
Cosmos 468 Rocket 4.0 03:09:26 10° SSW 03:14:45 87° WNW 03:20:03 10° NNE
Cosmos 1727 Rocket 4.0 03:08:24 10° SSW 03:14:45 78° W 03:21:07 10° N
ATLAS 5 CENTAUR R/B 4.0 03:13:21 10° NW 03:16:14 16° N 03:19:21 10° NNE
Cosmos 1802 Rocket 4.4 03:12:45 10° N 03:18:57 69° ENE 03:25:11 10° SSE
Landsat 5 4.3 03:17:47 10° SSW 03:21:50 32° W 03:25:53 10° NNW
Meteor 1-11 Rocket 3.7 03:16:23 10° NNW 03:22:07 62° W 03:27:40 10° S
ADEOS Rocket 3.1 03:16:04 10° S 03:22:50 72° WSW 03:28:57 10° NNW
ALOS 3.1 03:19:00 10° NNE 03:23:35 52° E 03:28:08 10° S
GENESIS II 4.4 03:21:04 20° WSW 03:23:41 58° NW 03:27:41 10° NNE
CZ-4B R/B 1.1 03:20:45 10° SSE 03:23:54 81° WSW 03:27:10 10° NNW
Cosmos 1459 Rocket 3.9 03:23:53 10° N 03:30:01 84° W 03:36:03 10° S
ERS-2 2.7 03:28:35 10° SSW 03:31:57 34° W 03:35:21 10° NNW
USA 234 3.8 03:26:56 10° SSE 03:32:46 34° SW 03:38:39 10° WNW
MSX 4.5 03:27:37 10° N 03:32:49 36° WNW 03:37:57 10° SW
Intercosmos 25 4.4 03:29:42 10° S 03:33:32 44° E 03:36:39 10° NNE
COSMO-SKYMED 1 3.6 03:31:17 10° SSE 03:35:30 52° ENE 03:39:44 10° N
Meteor 1-27 Rocket 3.8 03:29:50 10° SSW 03:35:46 72° WNW 03:41:41 10° N
Cosmos 1484 Rocket 3.1 03:32:18 10° NNE 03:36:18 72° ESE 03:40:17 10° S
Cosmos 1689 Rocket 2.8 03:35:03 10° SSE 03:37:57 58° ENE 03:40:54 10° N
Cosmos 2360 Rocket 2.8 03:35:25 10° S 03:40:59 61° ESE 03:46:34 10° NE
Cosmos 1536 3.1 03:38:11 10° NNW 03:42:06 45° W 03:45:58 10° SSW
Cosmos 1898 Rocket 4.0 03:37:54 10° NW 03:42:42 37° WSW 03:47:31 10° S
X-37B 2.0 03:42:02 14° WSW 03:44:00 25° SSW 03:46:40 10° SE
Cosmos 1697 Rocket 4.4 03:43:34 10° WNW 03:47:10 17° NW 03:50:46 10° N
BREEZE M DEB (TANK) 4.5 03:37:19 10° WNW 03:47:45 31° WSW 03:51:44 10° S
Meteor 1-31 Rocket 2.9 03:43:56 10° NNE 03:47:47 78° ESE 03:51:37 10° S
FENGYUN 3A 3.8 03:42:54 10° NNE 03:48:20 86° ESE 03:53:44 10° SSW
CZ-4C R/B 3.7 03:42:05 10° NW 03:48:51 54° NE 03:56:46 10° ESE
deb Chang Zheng 4 3.5 03:45:39 10° N 03:49:56 69° WNW 03:54:11 10° SSW
Cosmos 372 Rocket 3.9 03:45:31 10° NNW 03:50:42 84° WSW 03:55:49 10° SSE
Cosmos 1980 Rocket 3.5 03:47:24 11° W 03:51:44 24° NW 03:56:15 10° N
Cosmos 1908 Rocket 4.1 03:48:45 10° N 03:53:13 68° E 03:57:39 10° SSE
PSLV R/B 4.0 03:49:28 10° SSE 03:53:30 82° ENE 03:57:38 10° NNW
Cosmos 1437 Rocket 3.1 03:50:08 10° S 03:53:53 67° E 03:57:43 10° NNE
Cosmos 2263 Rocket 3.3 03:51:37 10° NW 03:55:43 21° W 03:59:49 10° SSW
Cosmos 921 Rocket 4.4 03:52:49 10° WSW 03:55:56 20° NW 03:59:06 10° N
Cosmos 2278 Rocket 4.3 03:51:11 10° NNW 03:56:03 28° NE 04:00:54 10° ESE
Cosmos 1544 3.3 03:53:06 10° N 03:56:43 74° E 04:00:17 10° SSE
Cosmos 2322 Rocket 2.3 03:52:12 10° SW 03:57:49 62° WNW 04:03:30 10° NNE
Cosmos 1844 3.8 03:52:21 10° NNW 03:57:58 85° ENE 04:03:32 10° SSE
Cosmos 2208 Rocket 4.1 03:54:05 10° SSW 03:59:20 87° ESE 04:04:34 10° NNE
Cosmos 1844 Rocket 2.7 03:56:41 10° NNW 04:02:20 76° WSW 04:07:58 10° SSE
Cosmos 2173 Rocket 4.2 03:56:33 10° NNW 04:02:36 50° W 04:08:41 10° SSW
Cosmos 1707 Rocket 4.4 04:00:37 10° SW 04:04:26 30° WNW 04:08:17 10° N
COSMOS 2455 4.4 04:00:26 10° NNW 04:06:00 36° NE 04:11:31 10° ESE
SL-16 R/B 2.6 04:01:39 10° SW 04:07:05 46° NW 04:12:34 10° NNE
